Regional Weather Roundup
Issued by NWS

Home | Current Version | Previous Version | Graphics & Text | Print | Product List | Glossary On
Versions: 1 2 3 4 5 6 7 8 9 10 11 12 13 14 15 16 17 18 19 20 21 22 23 24 25 26 27
000
ASUS45 KTFX 221110
RWRMT
MONTANA REGIONAL WEATHER ROUNDUP
NATIONAL WEATHER SERVICE GREAT FALLS MT
500 AM MDT FRI SEP 22 2017

NOTE: "FAIR" INDICATES FEW OR NO CLOUDS BELOW 12000 FEET WITH NO
SIGNIFICANT WEATHER AND/OR OBSTRUCTIONS TO VISIBILITY.

MTZ001>007-043-221200-
WEST OF THE DIVIDE

CITY           SKY/WX    TMP DP  RH WIND       PRES   REMARKS
KALISPELL      CLOUDY    44  31  60 N16       29.98F
MISSOULA       CLOUDY    40  36  86 NW6       29.95R
BUTTE          LGT SNOW  35  30  82 N13G21    29.89S WCI  26
MULLAN PASS    CLOUDY    31  29  92 CALM      29.93S FOG
ANACONDA         N/A     36  28  75 N13G21    29.92S WCI  27
DEER LODGE       N/A     37  27  65 N14       29.97R WCI  29
EUREKA           N/A     39  36  87 CALM      30.04F
HAMILTON         N/A     43  34  70 NW12      29.90S
LIBBY            N/A     37  37 100 CALM      30.02S
PLAINS           N/A     39  35  85 CALM      30.00
$$

MTZ008-052>055-221200-
SOUTHWEST MONTANA

CITY           SKY/WX    TMP DP  RH WIND       PRES   REMARKS
BOZEMAN        CLOUDY    38  35  89 SW9       29.88R WCI  31
DILLON         CLOUDY    36  33  89 NE14G22   29.84R WCI  27
W YELLOWSTONE  CLOUDY    32  32 100 MISG      29.81S
ENNIS          CLOUDY    36  34  93 N12G17    29.86R WCI  27
THREE FORKS      N/A     40  36  86 N8        29.90R
TWIN BRIDGES     N/A     36  31  82 N23       29.83R WCI  24
$$

MTZ009-010-012-014-046-048-049-054-221200-
EAST SLOPES AND CENTRAL MONTANA

CITY           SKY/WX    TMP DP  RH WIND       PRES   REMARKS
CUT BANK       CLOUDY    32  31  96 N9        30.05F WCI  24
GREAT FALLS    FLURRIES  35  32  88 N14       30.03F WCI  26
MALMSTROM AFB  DRIZZLE   36  34  93 N13       30.05F WCI  27
HELENA         CLOUDY    39  32  76 N14       29.97S WCI  31
BOWMANS CRNR   LGT SNOW  31  31  97 N17       30.00F WCI  20
CHOTEAU          N/A     36  30  80 N13       30.07S WCI  27
FAIRFIELD      LGT RAIN  35  31  86 N10       30.05S WCI  27
POWER          DRIZZLE   35  32  90 N10       30.05S WCI  27
RAYNESFORD     LGT SNOW  33  33 100 N6        30.00F WCI  28
ULM            LGT RAIN  35  33  93 N13       30.03F WCI  26
$$

MTZ011-013-016-021-045-047-050-051-221200-
NORTH CENTRAL MONTANA

CITY           SKY/WX    TMP DP  RH WIND       PRES   REMARKS
HAVRE          CLOUDY    37  33  85 W6        30.07R
LEWISTOWN      LGT SNOW  33  33 100 E5        30.01F FOG
N BAR RANCH    LGT SNOW  32  32 100 CALM      30.04S
CHINOOK          N/A     37  32  81 CALM      30.07R
DENTON         LGT RAIN  36  34  94 N10       30.00F WCI  28
GEYSER         FLURRIES  34  33  98 N14G21    30.00F WCI  24
GRASS RANGE    LGT SNOW  33  33  99 CALM      30.01R
JUDITH GAP     FLURRIES  32  31  97 S6        29.98F WCI  26
WINIFRED       LGT RAIN  34  33  96 SE7       30.03R WCI  28
$$

MTZ017>020-022>027-061-062-221200-
NORTHEAST MONTANA

CITY           SKY/WX    TMP DP  RH WIND       PRES   REMARKS
GLASGOW        CLOUDY    46  34  62 NW3       30.01R
JORDAN           N/A     44  41  89 NW12      29.99R
SIDNEY         CLOUDY    47  37  68 N13       29.93F
WOLF POINT     CLOUDY    46  39  76 N10       29.98R
MALTA          CLOUDY    43  32  65 CALM      30.05R
POPLAR           N/A     45  39  81 N6        29.97S
SCOBEY           N/A     42  32  68 CALM      29.97
$$

MTZ028>42-056>058-221200-
SOUTHCENTRAL AND SOUTHEAST MONTANA

CITY           SKY/WX    TMP DP  RH WIND       PRES   REMARKS
BAKER          CLOUDY    50  35  56 NE16      29.88F
BILLINGS       LGT RAIN  40  38  93 NE13      29.97R
LIVINGSTON     LGT SNOW  33  32  96 E18       29.93R FOG     WCI  22
MILES CITY     CLOUDY    49  36  61 N9        29.92R
BIG TIMBER     FOG       32  32 100 CALM      30.01R VSB 3/4
EKALAKA          N/A     48  33  56 N8        29.85
HARLOWTON      LGT RAIN  33  32  98 MISG      29.99F
LAUREL           N/A     39  37  93 NE10      29.98S FOG
$$

REGIONAL REPORTS...DAKOTAS

CITY           SKY/WX    TMP DP  RH WIND       PRES   REMARKS
WILLISTON      LGT RAIN  46  38  73 N14       29.94S
MINOT          CLOUDY    48  40  73 N10       29.92R
DICKINSON      CLOUDY    50  38  63 NE18G24   29.86R
BEACH          CLOUDY    46  39  76 N9        29.92S
CROSBY         CLOUDY    43  41  93 N6        29.97F
TIOGA          MOCLDY    45  41  87 NE14      29.94F
WATFORD CITY   MOCLDY    46  39  76 N12       29.91F
BISMARCK       MOCLDY    54  45  71 N17G25    29.81R
GRAND FORKS    PTCLDY    56  53  90 N14       29.79R
FARGO          MOCLDY    65  65 100 N3        29.74R
BUFFALO SD       N/A     52  37  56 NE20G26   29.75R
$$

REGIONAL REPORTS...WYOMING/IDAHO/WASHINGTON

CITY           SKY/WX    TMP DP  RH WIND       PRES   REMARKS
GILLETTE       CLOUDY    42  35  76 N15       29.85R
SHERIDAN       CLOUDY    44  40  85 W13       29.93R
BUFFALO WY     CLOUDY    43  33  68 NW13      29.91R
CODY           LGT SNOW  33  31  92 NW6       29.94R FOG     WCI  28
IDAHO FALLS    CLOUDY    40  40 100 S8        29.83R
SALMON         LGT RAIN  42  39  89 S3        29.85R
BOISE          CLOUDY    45  39  79 NW10      29.86R
SPOKANE        PTCLDY    39  38  96 N5        29.98R
$$

REGIONAL REPORTS...ALBERTA

CITY           SKY/WX    TMP DP  RH WIND       PRES   REMARKS
EDMONTON       CLOUDY    37  37 100 CALM      30.12
CALGARY        CLOUDY    36  32  87 N5        30.12R
LETHBRIDGE     LGT RAIN  36  36 100 NW8       30.10F FOG     WCI  29
MEDICINE HAT   CLOUDY    39  36  87 NW9       30.07F
$$

REGIONAL REPORTS...SASKATCHEWAN

CITY           SKY/WX    TMP DP  RH WIND       PRES   REMARKS
SWIFT CURRENT  CLOUDY    37  34  87 W8        30.02  WCI  31
REGINA         MOCLDY    36  34  93 NW5       29.99F
SASKATOON      MOCLDY    37  37 100 NW5       30.05R
$$




USA.gov is the U.S. government's official web portal to all federal, state and local government web resources and services.